Regional Weather Roundup
Issued by NWS Grand Forks, ND

Home | Current Version | Previous Version | Graphics & Text | Print | Product List | Glossary On
Versions: 1 2 3 4 5 6 7 8 9 10 11 12 13 14 15 16 17 18 19 20 21 22 23 24 25 26 27 28 29 30 31 32 33 34 35 36 37 38 39 40 41 42 43 44 45 46 47 48 49 50
265
ASUS43 KFGF 251431
RWRFGF
PRAIRIE TO PINES  WEATHER ROUNDUP
NATIONAL WEATHER SERVICE EASTERN NORTH DAKOTA/GRAND FORKS ND
900 AM CDT THU AUG 25 2016

 **SATELLITE DATA USED TO AUGMENT SKY COVER AT AUTOMATED STATIONS**
 *****  WEATHER ACROSS EASTERN NORTH DAKOTA  *****

CITY           SKY/WX    TMP DP  RH WIND       PRES   REMARKS
GRAND FORKS    CLOUDY    59  55  87 NW17G25   29.96R
GRAND FRKS AFB CLOUDY    59  54  82 N16G22    29.98R
DEVILS LAKE    CLOUDY    57  51  80 N18       30.05R
FARGO          CLOUDY    61  52  72 W18       30.01R
WAHPETON ARPT  CLOUDY    59  50  72 W14G22    30.04S
$$

 ***** WEATHER ACROSS CENTRAL AND WESTERN NORTH DAKOTA  *****

CITY           SKY/WX    TMP DP  RH WIND       PRES   REMARKS
BISMARCK       CLOUDY    56  50  80 NW9       30.14R
MINOT          MOSUNNY   57  52  83 NW13      30.12R
JAMESTOWN      CLOUDY    57  51  80 NW17G26   30.06R
MINOT AFB      PTSUNNY   55  52  89 NW13      30.11S
GARRISON         N/A     55  50  83 N14       30.14R
WILLISTON      SUNNY     57  47  69 W10       30.19S
DICKINSON      CLOUDY    51  46  83 NW13      30.20S
HETTINGER      CLOUDY    52  46  80 NW17      30.22S
$$

 *****  OTHER AIRPORT OBSERVATIONS IN OUR AREA  *****

CITY           SKY/WX    TMP DP  RH WIND       PRES   REMARKS
WALHALLA       FAIR      57  55  94 NW14G21   29.99R
GRAFTON AIRPOR CLOUDY    59  55  88 NW14G25   29.98R
VALLEY CITY AR CLOUDY    59  55  88 NW22      30.05F
CANDO          CLOUDY    57  55  94 N16       30.08R
CAVALIER APRT  PTSUNNY   59  52  77 NW17G25   29.98R
GWINNER        CLOUDY    61  52  72 W17       30.06F
ROLLA          PTSUNNY   54  54 100 NW14      30.08R
 ***** THE ABOVE OBSERVATIONS ARE NON NWS ARE NOT QUALITY
       CONTROLLED AND MAY MIS-REPORT RAIN FOR SNOW...
$$

  *****  WEATHER ACROSS NORTHERN MINNESOTA  *****

CITY           SKY/WX    TMP DP  RH WIND       PRES   REMARKS
FLAG ISLAND    CLOUDY    59  55  88 W5        29.83S FOG
WARROAD        CLOUDY    57  54  88 W8        29.87S FOG
ROSEAU         CLOUDY    59  54  82 W8        29.87S
HALLOCK        CLOUDY    55  55 100 NW15      29.94R FOG
THF RVR FALLS  LGT RAIN  57  55  94 W13       29.94R FOG
BAUDETTE       CLOUDY    59  55  87 SW7       29.86F
WASKISH        LGT RAIN  61  55  82 W18       29.90S
CROOKSTON      CLOUDY    61  55  82 NW18      29.95S
STEPHEN NDAWN    N/A     57  55  94 NW13        N/A
GREENBUSH NDAW   N/A     57  57 100 NW12        N/A
$$
  *****  WEATHER ACROSS CENTRAL AND WEST MINNESOTA  *****

CITY           SKY/WX    TMP DP  RH WIND       PRES   REMARKS
FOSSTON        CLOUDY    55  54  94 SW12G18   29.96S
BEMIDJI        CLOUDY    57  53  85 W13G20    29.94F
PARK RAPIDS    CLOUDY    58  52  80 W16       29.98S
ELBOW LAKE     CLOUDY    57  53  88 NW12G21   30.05S
WADENA         NOT AVBL
DETROIT LAKES  PTSUNNY   55  54  94 W10G17    30.01F
MOORHEAD       CLOUDY    61  52  72 W16       30.01F
FERGUS FALLS   CLOUDY    57  54  88 W14       30.05S
MORRIS MN      SUNNY     61  54  77 W10       30.05F
STAPLES        CLOUDY    57  52  82 W12       30.01S
$$
  *****  WEATHER ELSEWHERE ACROSS MINNESOTA  *****

CITY           SKY/WX    TMP DP  RH WIND       PRES   REMARKS
DULUTH         SUNNY     64  55  72 W10       29.94F
INTRNTL FALLS    N/A     57  54  89 SW8       29.87F
ELY            SUNNY     63  54  72 W8        29.90F
CLOQUET        SUNNY     64  52  63 W7        29.95F
WHEATON        MOSUNNY   63  54  72 W13G18    30.08S
BRAINERD       CLOUDY    59  53  80 W13G21    30.00R
HIBBING        PTSUNNY   59  54  83 W9        29.93S
ALEXANDRIA     PTSUNNY   59  51  75 W14       30.05S
SAINT CLOUD    SUNNY     63  55  75 W13       30.02R
MINNEAPOLIS    MOSUNNY   66  58  75 W7        30.01S
$$

  *****  WEATHER ACROSS SOUTH DAKOTA  *****

CITY           SKY/WX    TMP DP  RH WIND       PRES   REMARKS
SIOUX FALLS    CLOUDY    61  53  75 N10       30.13R
BROOKINGS      PTSUNNY   57  53  86 NW12      30.11F
WATERTOWN      SUNNY     57  50  77 W13       30.11S
HURON          MOSUNNY   58  50  75 NW13      30.15R
SISSETON         N/A     60  50  69 NW21G26   30.06R
ABERDEEN       SUNNY     56  49  77 SW9       30.12R
MITCHELL       MOSUNNY   57  51  80 NW8       30.17R
PIERRE         SUNNY     58  48  69 W13       30.18F
MOBRIDGE       SUNNY     58  48  69 NW18G24   30.14S
RAPID CITY     PTSUNNY   57  43  59 N7        30.27S
$$

  *****  SOME WEATHER IN NEARBY STATES *****

CITY           SKY/WX    TMP DP  RH WIND       PRES   REMARKS
GLASGOW MT     CLOUDY    51  45  79 W7        30.22F
GREAT FALLS MT SUNNY     44  39  82 SW3       30.29S
CHEYENNE WY    MOSUNNY   48  43  82 N16G23    30.34R
SCOTTSBLUFF NE PTSUNNY   55  46  71 NE8       30.30R
OMAHA NE       CLOUDY    61  57  87 N6        30.13R
DES MOINES IA  PTSUNNY   71  62  73 N5        30.08R
DAVENPORT IA   CLOUDY    72  65  78 N8        30.04S
CHICAGO IL     CLOUDY    73  70  90 NW5       29.99R
EAU CLAIRE WI  SUNNY     68  60  75 W7        30.01S
LA CROSSE WI   PTSUNNY   68  32  26 S3        30.03S
$$

  *****  SOME NATIONAL WEATHER *****

CITY           SKY/WX    TMP DP  RH WIND       PRES   REMARKS
LA GUARDIA NY  PTSUNNY   80  62  54 S13       30.10F
RALEIGH NC     MOSUNNY   79  65  62 SW7       30.19S
ATLANTA GA     MOSUNNY   79  71  76 W5        30.22F
NEW ORLEANS LA MOSUNNY   88  80  77 NE8       30.10R HX 104
OKLAHOMA CITY  MOSUNNY   78  69  73 S10       30.09R
ALBUQUERQUE NM MOSUNNY   60  50  69 N7        30.26R
SALT LAKE CITY PTSUNNY   58  35  42 S6        30.10S
LOS ANGELES CA PTCLDY    65  58  78 CALM      29.96R
BOISE ID       CLEAR     57  34  41 SE7       30.12R
SEATTLE WA     PTCLDY    63  54  72 CALM      30.14S
$$

*** WEATHER ACROSS MANITOBA...SASKATCHEWAN AND ONTARIO ***
                ***ONTARIO***

CITY           SKY/WX    TMP DP  RH WIND       PRES   REMARKS
GERALDTON      CLOUDY    63  63 100 SW6       29.80F FOG
THUNDER BAY    MOSUNNY   68  57  68 W6        29.85F
SIOUX LOOKOUT  PTSUNNY   64  57  77 W6        29.80F
TORONTO        PTSUNNY   79  72  78 W8        29.93R
BIG TROUT LK   CLOUDY    55  52  88 W5        29.88F
PICKLE LAKE    LGT RAIN  50  50 100 NE6       29.84S FOG
DRYDEN         CLOUDY    63  57  82 W7        29.81F
KENORA         PTSUNNY   59  55  88 W6        29.83S
$$
                *** MANITOBA***

CITY           SKY/WX    TMP DP  RH WIND       PRES   REMARKS
BRANDON        MOSUNNY   57  52  82 NW16      30.05S
DAUPHIN        SUNNY     57  52  82 W8        30.03R
ISLAND LAKE    MOSUNNY   57  50  77 W5        29.93S
PILOT MOUND      N/A     55  54  94 NW14        N/A
THE PAS        MOSUNNY   59  52  77 W6        30.00S
THOMPSON       MOSUNNY   59  52  77 W5        29.92S
WINNIPEG       CLOUDY    55  54  94 NW15G23   29.94R
LYNN LAKE      SUNNY     61  54  77 MISG      29.94F
CHURCHILL      PTSUNNY   57  52  82 NW12      29.82S
GILLAM         MOSUNNY   57  48  72 W5        29.88S
$$
                ***SASKATCHEWAN***

CITY           SKY/WX    TMP DP  RH WIND       PRES   REMARKS
ESTEVAN        MOSUNNY   54  48  82 W7        30.15R
KINDERSLEY     CLOUDY    52  50  93 NW6       30.16
LLOYDMINSTER   LGT RAIN  55  52  88 W12       30.12
PRINCE ALBERT  MOSUNNY   50  48  93 W5        30.09S
REGINA         MOSUNNY   50  48  93 W6        30.15R
YORKTON        SUNNY     55  52  88 NW8       30.08S
N. BATTLEFORD  MOSUNNY   55  55 100 NW9       30.13F
LA RONGE       MOSUNNY   57  52  82 W5        30.03
SASKATOON      MOSUNNY   52  50  93 SW5       30.13S
SWIFT CURRENT  SUNNY     52  48  87 W9        30.17S
$$
NOTE: THESE ARE AUTOMATED STATIONS WITH LIMITED QUALITY CONTROL
      "FAIR" INDICATES FEW OR NO CLOUDS BELOW 12,000 FEET WITH NO
      SIGNIFICANT WEATHER AND/OR OBSTRUCTIONS TO VISIBILITY.
      SKY/WX - SKY CONDITION AND SIGNIFICANT WEATHER.
      TMP - AIR TEMPERATURE.    DP   - DEWPOINT TEMPERATURE.
      RH  - RELATIVE HUMIDITY.  PRES - PRESSURE.
      HX  - HEAT INDEX.         WCI  - WIND CHILL INDEX.
$




USA.gov is the U.S. government's official web portal to all federal, state and local government web resources and services.